User: anonymous   Login
Location: Miami, Florida
(25.6830°N, 80.1700°W)
Time: 23:29:55
(UTC-04:00)
Language:

Tiangong 2 - Orbit

View from above orbital plane
View from above orbital plane
View from above satellite
View from above satellite

Ground track
Ground track

The orbit data is extracted from the following two-line orbital elements,

1 41765U 16057A   18048.83957178  .00003934  00000-0  51154-4 0  9990
2 41765  42.7862 334.2733 0002634 170.0172 291.2987 15.60386652 81337
Epoch (UTC): 17 February 2018 20:08:59
Eccentricity: 0.0002634
inclination: 42.7862°
perigee height: 385 km
apogee height: 388 km
right ascension of ascending node: 334.2733°
argument of perigee: 170.0172°
revolutions per day: 15.60386652
mean anomaly at epoch: 291.2987°
orbit number at epoch: 8133

The dashed part of the orbit path shows where the satellite is in the earth's shadow,  

DLR